Regional Weather Roundup
Issued by NWS Northern Indiana

Home | Current Version | Previous Version | Graphics & Text | Print | Product List | Glossary On
Versions: 1 2 3 4 5 6 7 8 9 10 11 12 13 14 15 16 17 18 19 20 21 22 23 24 25 26 27 28 29 30 31 32 33 34 35 36 37 38 39 40 41 42 43 44 45 46 47 48 49 50
034
ASUS43 KIWX 280200
RWRIWX

KIWX WEATHER ROUNDUP
NATIONAL WEATHER SERVICE NORTHERN INDIANA
1000 PM EDT WED JUL 27 2016

NOTE: "FAIR" INDICATES FEW OR NO CLOUDS BELOW 12,000 FEET WITH NO
SIGNIFICANT WEATHER AND/OR OBSTRUCTIONS TO VISIBILITY.

* THESE STATIONS ARE NOT UNDER NWS QUALITY CONTROL. THEY ALSO MAY NOT
  REPORT WEATHER SUCH AS PRECIPITATION OR FOG.

INZ001>027-280300-
NORTHERN INDIANA

CITY           SKY/WX    TMP DP  RH WIND       PRES   REMARKS
GARY*          PTCLDY    75  72  88 CALM      29.93R
KNOX*          CLEAR     73  64  73 S3        29.94R
SOUTH BEND     CLEAR     73  66  78 N5        29.95R
GOSHEN         CLEAR     75  66  73 N3        29.95R
MONTICELLO*    CLEAR     74  67  80 CALM      29.94R
ANGOLA*        CLEAR     73  66  78 CALM      29.95R
FORT WAYNE     PTCLDY    76  64  66 NW5       29.95R
PERU/GRISSOM   PTCLDY    76  68  75 W3        29.93S

$$
INZ028>050-280300-
CENTRAL INDIANA

CITY           SKY/WX    TMP DP  RH WIND       PRES   REMARKS
LAFAYETTE      PTCLDY    74  70  87 NW3       29.94R
KOKOMO*        PTCLDY    72  64  78 CALM      29.95R
MUNCIE*        PTCLDY    75  67  76 CALM      29.95R
INDIANAPOLIS   CLOUDY    81  66  60 NW6       29.95R

$$
MIZ043>046-050>051-056>058-064>065-071>073-077>080-280300-
SOUTHWEST LOWER MICHIGAN

CITY           SKY/WX    TMP DP  RH WIND       PRES   REMARKS
BATTLE CREEK   CLEAR     72  63  73 NE6       29.97S
BENTON HARBOR  PTCLDY    72  65  78 CALM      29.95R
COLDWATER*     CLEAR     73  64  73 NE8       29.96S
HILLSDALE*     CLEAR     74  63  68 N3        29.97R
HOLLAND        MOCLDY    75  69  81 E6        29.95R
GRAND RAPIDS   MOCLDY    73  64  73 CALM      29.96R
KALAMAZOO      PTCLDY    73  64  73 CALM      29.96R
STURGIS*       CLEAR     74  65  74 NE7       29.96R
THREE RIVERS*  FAIR      76  65  68 CALM      29.97R

$$
OHZ001>008-015>018-024>025-280300-
NORTHWEST OHIO

CITY           SKY/WX    TMP DP  RH WIND       PRES   REMARKS
DEFIANCE       MOCLDY    80  65  59 CALM      29.94R
FINDLAY        PTCLDY    82  58  43 NE5       29.94R
TOLEDO METCALF CLEAR     80  65  59 SE3       29.94R
LIMA           MOCLDY    77  69  76 S3        29.95R

$$
AND FOR LAKE MICHIGAN COASTAL AND OPEN LAKE BUOY OBSERVATIONS

STATION/POSITION TEMP    WIND        PRES    VSBY  WAVE
                 AIR SEA DIR/SP/G                  HT/PER
                 (F)     (DEG/KT/KT) (MB)    (MI)  (FT/S)
CALUMET HARBOR           110/  5/  7   N/A
MICHIGAN CITY     81     100/  4/  6   N/A
BURNS HARBOR      82     110/  9/ 15 1013.5S
SAINT JOSEPH      78      CALM  /  4 1014.2R
SOUTH LAKE BUOY   75 76   80/  6/  8 1012.8          0
4 MI NW BRIDGMAN  79 79   20/  4/  6 1012.7F         0
MICHIGAN CITY     78 77  100/  4/  6   N/A           1

$$
&&




USA.gov is the U.S. government's official web portal to all federal, state and local government web resources and services.